Location: Florence
(33.9745°N, 118.2481°W)
Time: 18:45:54
(UTC+00:00)

CZ-2C R/B - Pass Details

Date: 23 March 2023
Orbit: 704 x 905 km, 98.1° (Epoch: 05 June)

Event Time Altitude Azimuth Distance (km) Brightness Sun altitude
Rises 12:00:53 0° 6° (N) 3,100 6.5 -23.6°
Reaches altitude 10° 12:03:10 10° 2° (N) 2,182 5.6 -23.2°
Maximum altitude 12:07:47 53° 286° (WNW) 877 2.9 -22.3°
Enters shadow 12:07:50 53° 283° (WNW) 878 2.9 -22.2°
